Terug naar catalogus

ATLAS 5 CENTAUR DEB

ActiefHEO
NORAD 43985·DEBRIS·🇺🇸 United States

Gelanceerd Sep 17, 2014 vanaf Cape Canaveral Space Force Station

Loading…

Volgende Passages (komende 24 uur)

TLE

VersSource: Space-Track

Epoch: Sep 8, 2026, 06:48 UTC

1 43985U 14055AQ  26251.28398973 -.00000031  00000-0  00000-0 0  9994
2 43985  19.0725 166.4591 4763657 119.0230 296.5520  1.76721536 13495

Volg ATLAS 5 CENTAUR DEB in realtime met AllMySat

Download on the App Store